Simultaneous Nadir Overpasses (SNOs) Predictions

Prediction of SNOs between TERRA and METOP-C Satellite Orbit:

Table of predicted SNOs for the next 14.0 days since TLE Epoch: 1/23/2021
Index Date (TERRA) Time (TERRA) Lat,Lon (TERRA) SZA (TERRA ) Date (METOP-C) Time (METOP-C) Lat,Lon (METOP-C) SZA (METOP-C ) Distance(km) Time Diff (sec)
1 01/25/2021 15:25:28 -81.28, 174.99 77.69 01/25/2021 15:24:44 -81.28, 174.98 77.71 0.23 44
2 01/25/2021 16:14:54 81.28, -17.26 102.32 01/25/2021 16:15:23 81.29, -17.14 102.35 1.98 29
3 01/28/2021 10:59:42 -81.27,-118.71 78.45 01/28/2021 10:59:07 -81.28,-118.61 78.44 1.88 35
4 01/28/2021 11:49:07 81.29, 49.38 101.61 01/28/2021 11:49:45 81.29, 49.58 101.65 3.37 38
5 01/31/2021 06:33:55 -81.28, -52.08 79.20 01/31/2021 06:33:30 -81.28, -52.23 79.22 2.57 25
6 01/31/2021 07:23:21 81.28, 115.61 100.81 01/31/2021 07:24:09 81.28, 115.51 100.82 1.72 48
7 02/03/2021 02:08:07 -81.29, 14.53 79.99 02/03/2021 02:07:51 -81.28, 14.53 80.00 0.72 16
8 02/03/2021 02:57:33 81.29,-177.81 100.01 02/03/2021 02:58:30 81.29,-177.79 100.03 0.43 57
9 02/05/2021 21:42:21 -81.27, 80.72 80.88 02/05/2021 21:42:14 -81.28, 80.89 80.86 2.90 7



Historial Predications of SNOs between TERRA and METOP-C
